Location: Pine Mountain State Resort Park
(36.7364°N, 83.7376°W)
Time: 22:32:46
(UTC-05:00)

Tiangong 1 - Visible Passes

Search period start: 24 February 2018 00:00
Search period end: 06 March 2018 00:00
Orbit: 245 x 266 km, 42.8° (Epoch: 24 February)

Date Brightness Start Highest point End Pass type
(mag) Time Alt. Az. Time Alt. Az. Time Alt. Az.
28 Feb 2.5 19:03:49 10° S 19:05:05 14° SE 19:06:09 11° ESE visible
01 Mar 1.8 18:54:47 10° SSW 18:56:39 22° SSE 18:58:30 10° E visible
02 Mar 3.8 20:19:44 10° WNW 20:20:09 13° WNW 20:20:09 13° WNW visible
03 Mar 3.3 20:10:59 10° WNW 20:11:49 16° NW 20:11:49 16° NW visible
04 Mar 2.9 20:01:56 10° WNW 20:03:06 17° NNW 20:03:06 17° NNW visible
05 Mar 2.6 19:52:33 10° NW 19:54:03 17° N 19:54:03 17° N visible
